Regional Weather Roundup
Issued by NWS

Home | Current Version | Previous Version | Graphics & Text | Print | Product List | Glossary On
Versions: 1 2 3 4 5 6 7 8 9 10 11 12 13 14 15 16 17 18 19 20 21 22 23 24 25 26 27 28 29 30 31 32 33 34 35 36 37 38 39 40 41 42 43 44 45 46 47 48 49 50
000
ASUS43 KOAX 090702
RWRNE

WEATHER ROUNDUP FOR NEBRASKA
NATIONAL WEATHER SERVICE OMAHA NE
100 AM CST TUE FEB 09 2016

NOTES: SATELLITE DATA IS BEING USED TO AUGMENT CLOUD COVER ABOVE
       12000 FEET.
       "FAIR" INDICATES FEW OR NO CLOUDS BELOW 12,000 FEET WITH NO
       SIGNIFICANT WEATHER AND/OR OBSTRUCTIONS TO VISIBILITY.

  * THESE STATIONS DO NOT REPORT WEATHER SUCH AS RAIN...SNOW OR FOG.

NEZ001>004-019>022-054>056-090800-
NEBRASKA PANHANDLE

CITY           SKY/WX    TMP DP  RH WIND       PRES   REMARKS
SCOTTSBLUFF    CLEAR     31  25  78 NW12      30.25F WCI  22
ALLIANCE       CLEAR     33  26  75 W17       30.19S WCI  22
CHADRON        CLOUDY    37  27  67 N8        30.22S WCI  31
SIDNEY         CLEAR     32  25  75 W17       30.23F WCI  21
$$

NEZ057>060-069>072-079>082-090800-
SOUTHWEST NEBRASKA

CITY           SKY/WX    TMP DP  RH WIND       PRES   REMARKS
NORTH PLATTE   CLOUDY    30  21  69 NW7       30.20S WCI  23
IMPERIAL       CLEAR     29  23  78 NW7       30.23F WCI  22
MCCOOK         CLOUDY    29  21  72 W10       30.22F WCI  20
$$

NEZ005>010-023>029-035>040-094-090800-
NORTH CENTRAL NEBRASKA

CITY           SKY/WX    TMP DP  RH WIND       PRES   REMARKS
VALENTINE      CLOUDY    31  17  56 N17       30.20R WCI  19
AINSWORTH      MOCLDY    30  17  57 N16       30.18S WCI  19
BROKEN BOW     CLOUDY    31  16  54 NW16      30.16S WCI  20
ORD            CLEAR     25  17  72 NW13      30.15S WCI  14
$$

NEZ041-046>049-061>064-073>077-083>087-090800-
SOUTH CENTRAL NEBRASKA

CITY           SKY/WX    TMP DP  RH WIND       PRES   REMARKS
GRAND ISLAND   CLEAR     20  12  71 W10       30.16S WCI   9
HASTINGS       CLEAR     22  13  68 NW13      30.16R WCI  10
$$

NEZ011>018-030>034-042>045-090800-
NORTHEAST NEBRASKA

CITY           SKY/WX    TMP DP  RH WIND       PRES   REMARKS
NORFOLK        CLOUDY    24  12  60 N29G37    30.12R WCI   7
COLUMBUS *     CLEAR     25  10  54 NW16      30.13R WCI  12
FREMONT        CLEAR     23  12  63 NW14G25   30.12R WCI  11
TEKAMAH        CLEAR     23  11  60 N23G30    30.12R WCI   7
$$

NEZ050>053-065>068-078-088>093-090800-
SOUTHEAST NEBRASKA

CITY           SKY/WX    TMP DP  RH WIND       PRES   REMARKS
LINCOLN        CLOUDY    28  18  66 N20       30.13R WCI  15
OMAHA EPPLEY   CLEAR     23  12  62 N24G36    30.08S WCI   7
BEATRICE       CLOUDY    29  22  74 NW13      30.11S WCI  19
FALLS CITY     CLEAR     29  16  58 NW16G25   30.07F WCI  17
NEBRASKA CITY  CLEAR     26  13  58 N18G32    30.08R WCI  12
$$

NEZ044-045-051>053-067-090800-
OMAHA AREA

CITY           SKY/WX    TMP DP  RH WIND       PRES   REMARKS
OMAHA EPPLEY   CLEAR     23  12  62 N24G36    30.08S WCI   7
FREMONT        CLEAR     23  12  63 NW14G25   30.12R WCI  11
OFFUTT AFB     CLEAR     24  10  55 NW12G30   30.08S WCI  13
WAHOO          FAIR      24  15  68 N21       30.11S WCI   9
$$



USA.gov is the U.S. government's official web portal to all federal, state and local government web resources and services.